This demonstration page uses our WeatherBlox Daily Observations layout. Learn more.

Hourly Observations for August 24, 2016

Temp ( °F °C ) Dew Point ( °F °C ) Humidity (%) Winds ( mph kmh ) Pressure ( in mb ) Visibility ( mi km ) Precip ( " mm )
12:15 am 00:15 Clear 67 19.6 57 14.1 71 71 N 5 7 29.85 1011 10 16.09344 0 0
12:35 am 00:35 Clear 65 18.4 58 14.7 79 79 N 3 6 29.88 1012 10 16.09344 0 0
12:55 am 00:55 Clear 65 18.2 58 14.5 79 79 N 3 6 29.88 1012 10 16.09344 0 0
1:15 am 01:15 Clear 64 18 57 14 78 78 N 5 7 29.91 1013 10 16.09344 0 0
1:35 am 01:35 Clear 65 18.2 56 13.5 74 74 N 6 9 29.91 1013 10 16.09344 0 0
1:55 am 01:55 Clear 65 18.1 56 13.1 73 73 N 7 11 29.88 1012 10 16.09344 0 0
2:15 am 02:15 Clear 64 17.8 55 13 74 74 N 7 11 29.91 1013 10 16.09344 0 0
2:35 am 02:35 Clear 63 17.3 55 12.8 75 75 N 6 9 29.88 1012 10 16.09344 0 0
2:55 am 02:55 Clear 63 17.3 55 12.5 74 74 N 8 13 29.88 1012 10 16.09344 0 0
3:15 am 03:15 Clear 62 16.9 55 12.5 75 75 N 5 7 29.91 1013 10 16.09344 0 0
3:35 am 03:35 Clear 62 16.7 54 12.2 75 75 N 5 7 29.91 1013 10 16.09344 0 0
3:55 am 03:55 Clear 62 16.5 54 12 75 75 N 6 9 29.91 1013 10 16.09344 0 0
4:15 am 04:15 Clear 61 16.1 54 12.2 78 78 N 6 9 29.91 1013 10 16.09344 0 0
4:35 am 04:35 Clear 61 16 54 12 77 77 N 7 11 29.94 1014 10 16.09344 0 0
4:55 am 04:55 Clear 61 16 53 11.6 75 75 N 7 11 29.94 1014 10 16.09344 0 0
5:15 am 05:15 Clear 61 16 52 11.2 73 73 N 8 13 29.94 1014 10 16.09344 0 0
5:35 am 05:35 Clear 62 16.4 51 10.6 69 69 N 7 11 29.94 1014 10 16.09344 0 0
5:55 am 05:55 Clear 61 16 51 10.5 70 70 N 7 11 29.94 1014 10 16.09344 0 0
6:15 am 06:15 Clear 60 15.7 51 10.5 71 71 N 7 11 29.97 1015 10 16.09344 0 0
6:35 am 06:35 Clear 60 15.5 51 10.5 72 72 N 8 13 30 1016 10 16.09344 0 0
6:55 am 06:55 Clear 60 15.5 51 10.5 72 72 N 8 13 30 1016 10 16.09344 0 0
7:15 am 07:15 Sunny 60 15.5 50 10.2 71 71 N 9 15 30 1016 10 16.09344 0 0
7:35 am 07:35 Sunny 60 15.5 50 10.2 71 71 N 9 15 30 1016 10 16.09344 0 0
7:55 am 07:55 Sunny 60 15.8 51 10.3 70 70 N 8 13 30 1016 10 16.09344 0 0
8:15 am 08:15 Sunny 62 16.7 51 10.6 67 67 N 10 17 29.97 1015 10 16.09344 0 0
8:35 am 08:35 Sunny 62 16.8 51 10.3 66 66 NNE 10 17 29.97 1015 10 16.09344 0 0
8:55 am 08:55 Sunny 63 17 51 10.7 67 67 N 6 9 30 1016 10 16.09344 0 0
9:15 am 09:15 Sunny 62 16.9 51 10.7 67 67 N 7 11 30 1016 10 16.09344 0 0
9:35 am 09:35 Sunny 63 17.2 51 10.8 66 66 NNW 3 6 30.03 1017 10 16.09344 0 0
9:55 am 09:55 Sunny 63 17.1 52 11.1 68 68 N 5 7 30 1016 10 16.09344 0 0
10:15 am 10:15 Sunny 63 17.2 51 10.7 66 66 N 7 11 30.03 1017 10 16.09344 0 0
10:35 am 10:35 Sunny 63 17.4 51 10.5 64 64 NNE 12 19 30 1016 10 16.09344 0 0
10:55 am 10:55 Sunny 64 17.6 51 10.5 63 63 NE 7 11 30.03 1017 10 16.09344 0 0
11:15 am 11:15 Sunny 64 17.6 50 10.1 62 62 N 8 13 30.03 1017 10 16.09344 0 0
11:35 am 11:35 Mostly Cloudy 64 17.5 50 10.2 62 62 NE 3 6 30.06 1018 10 16.09344 0 0
11:55 am 11:55 Partly Cloudy 64 17.6 51 10.7 64 64 Calm 30.06 1018 10 16.09344 0 0
12:15 pm 12:15 Mostly Cloudy 64 17.7 52 11.1 65 65 WNW 6 9 30.06 1018 10 16.09344 0 0
12:35 pm 12:35 Partly Cloudy 64 17.7 53 11.5 67 67 N 6 9 30.03 1017 10 16.09344 0 0
12:55 pm 12:55 Sunny 65 18.1 52 11 63 63 NE 7 11 30.03 1017 10 16.09344 0 0
1:15 pm 13:15 Sunny 65 18.3 52 11.1 63 63 NNE 9 15 30.03 1017 10 16.09344 0 0
1:35 pm 13:35 Sunny 66 19.1 52 11.1 60 60 NNE 8 13 30.03 1017 10 16.09344 0 0
1:55 pm 13:55 Sunny 68 20.2 50 10 52 52 NE 9 15 30.03 1017 10 16.09344 0 0
2:15 pm 14:15 Sunny 68 20 52 11.1 57 57 NNE 9 15 30.03 1017 10 16.09344 0 0
2:35 pm 14:35 Sunny 70 20.9 51 10.8 53 53 NE 9 15 30.03 1017 10 16.09344 0 0
2:55 pm 14:55 Sunny 69 20.7 53 11.4 55 55 NNE 6 9 30.03 1017 10 16.09344 0 0
3:15 pm 15:15 Sunny 69 20.5 53 11.9 58 58 N 6 9 30 1016 10 16.09344 0 0
3:35 pm 15:35 Sunny 70 21 53 11.9 56 56 N 8 13 30.03 1017 10 16.09344 0 0
3:55 pm 15:55 Sunny 70 21.1 52 11.1 53 53 NNE 9 15 30.03 1017 10 16.09344 0 0
4:15 pm 16:15 Sunny 70 21.1 52 11.2 53 53 NNE 9 15 30.03 1017 10 16.09344 0 0
4:35 pm 16:35 Sunny 71 21.4 51 10.8 51 51 NNE 10 17 30.03 1017 10 16.09344 0 0
4:55 pm 16:55 Sunny 72 22.1 51 10.4 48 48 NE 12 19 30.03 1017 10 16.09344 0 0
5:15 pm 17:15 Sunny 72 22 51 10.7 49 49 NE 9 15 30.03 1017 10 16.09344 0 0
5:35 pm 17:35 Sunny 72 22.2 50 10.2 47 47 NE 12 19 30.03 1017 10 16.09344 0 0
5:55 pm 17:55 Sunny 71 21.7 50 9.9 47 47 NE 10 17 30.03 1017 10 16.09344 0 0
6:15 pm 18:15 Sunny 71 21.4 50 10.1 49 49 NNE 6 9 30.03 1017 10 16.09344 0 0
6:35 pm 18:35 Sunny 69 20.8 52 11.2 54 54 NNE 8 13 30.03 1017 10 16.09344 0 0
6:55 pm 18:55 Sunny 69 20.6 53 11.7 57 57 NE 7 11 30.06 1018 10 16.09344 0 0
7:15 pm 19:15 Partly Cloudy 69 20.6 54 12.2 59 59 NE 5 7 30.06 1018 10 16.09344 0 0
7:35 pm 19:35 Mostly Cloudy 69 20.4 54 12.3 60 60 NE 6 9 30.06 1018 10 16.09344 0 0
7:55 pm 19:55 Partly Cloudy 67 19.5 54 12.1 62 62 ENE 6 9 30.06 1018 10 16.09344 0 0
8:15 pm 20:15 Partly Cloudy 64 17.8 55 12.7 72 72 NE 5 7 30.06 1018 10 16.09344 0 0
8:35 pm 20:35 Partly Cloudy 63 17.1 55 12.8 76 76 ENE 5 7 30.09 1019 10 16.09344 0 0
8:55 pm 20:55 Partly Cloudy 63 17.3 55 12.7 75 75 E 3 6 30.06 1018 10 16.09344 0 0
9:15 pm 21:15 Mostly Cloudy 62 16.6 56 13.6 83 83 E 3 6 30.09 1019 10 16.09344 0 0
9:35 pm 21:35 Cloudy 63 17.1 56 13.2 78 78 ESE 7 11 30.09 1019 10 16.09344 0 0
9:55 pm 21:55 Cloudy 62 16.8 56 13.3 80 80 Calm 30.09 1019 10 16.09344 0 0
10:15 pm 22:15 Mostly Cloudy 63 17 55 13 77 77 Calm 30.09 1019 10 16.09344 0 0
10:35 pm 22:35 Mostly Cloudy 62 16.4 57 13.7 84 84 Calm 30.09 1019 10 16.09344 0 0
10:55 pm 22:55 Cloudy 62 16.5 57 14.1 86 86 Calm 30.09 1019 10 16.09344 0 0
11:15 pm 23:15 Cloudy 62 16.5 57 13.9 85 85 E 8 13 30.09 1019 10 16.09344 0 0
11:35 pm 23:35 Cloudy 62 16.7 56 13.2 80 80 Calm 30.09 1019 10 16.09344 0 0
11:55 pm 23:55 Cloudy 62 16.5 55 12.6 78 78 N 3 6 30.09 1019 10 16.09344 0 0

Powered by AerisWeather